Temperature
18 18 18 18 18 18 18 18 19 19 19 18 18 18 18 18 18 18 18 18 18 18 18 18 18 18 18 18 18 18 18 18 18 18 18 18 18 18 18 18 18 18 18
18 18 18 18 18 18 18 18 18 18 18 18 18 18 18 18 18 18 18 18 18 18 18 18 18 18 18 18 18 18 18 18 18 18 18 18 18 18 18 18 18 18 18
18 18 18 18 18 18 18 18 18 18 18 18 18 18 18 18 18 18 18 18 18 18 18 18 18 18 18 18 18 18 18 18 18 18 18 18 18 18 18 18 18 18 18
18 18 18 18 18 18 18 18 18 18 18 18 18 18 18 18 18 17 17 17 17 17 18 18 18 18 18 18 18 18 18 17 17 18 18 18 18 18 18 18 18 18 18
18 18 18 18 18 18 18 18 18 17 17 17 17 17 17 17 17 17 17 17 17 17 17 17 17 17 17 17 17 17 17 17 17 17 17 18 18 18 18 18 18 18 18
18 18 18 18 18 18 18 18 17 17 17 17 17 17 17 17 17 17 17 17 17 17 17 17 17 17 17 17 17 17 17 17 17 17 17 17 17 18 18 18 18 18 18
18 18 18 18 18 18 18 18 17 17 17 17 17 17 17 17 17 17 17 17 17 17 17 17 17 17 17 17 17 17 17 17 17 17 17 17 17 17 18 18 18 18 18
18 18 18 18 18 18 18 17 17 17 17 17 17 17 17 17 17 17 17 17 17 17 17 17 17 17 17 17 17 17 17 17 17 17 17 17 17 17 17 17 18 18 18
18 18 18 18 18 18 17 17 17 17 17 17 17 17 17 17 16 16 16 17 17 17 17 17 17 17 17 17 17 17 17 17 17 17 17 17 17 17 17 17 17 17 18
17 17 18 18 18 18 17 17 17 17 17 17 17 17 17 16 16 16 16 16 17 17 17 17 17 17 17 17 17 17 17 17 17 17 17 17 17 17 17 17 17 17 17
17 17 17 17 17 17 17 17 17 17 17 17 17 17 17 16 16 16 16 16 16 16 16 17 17 17 17 17 16 17 17 17 17 17 17 17 17 17 17 17 17 17 17
17 17 17 17 17 17 17 17 17 17 17 17 17 17 17 16 16 16 16 16 16 16 16 17 17 17 17 17 17 17 17 17 17 17 17 17 17 17 17 17 17 17 17
17 17 17 17 17 17 17 17 17 17 17 17 17 17 17 16 16 16 16 16 16 16 16 16 17 17 17 16 16 17 16 16 17 16 16 16 16 16 16 16 17 17 17
17 17 17 17 17 17 17 17 17 17 17 17 17 17 17 17 16 17 16 16 16 16 16 16 16 17 17 16 16 16 16 16 16 16 16 16 16 16 16 16 16 16 16
18 17 17 17 17 17 17 17 17 17 17 17 17 17 17 17 17 17 17 16 16 16 16 16 16 16 16 16 16 16 16 16 16 16 16 16 16 16 16 16 16 16 16
18 18 17 17 17 17 17 17 17 17 17 17 17 17 17 17 17 16 16 16 16 16 16 16 16 16 16 16 16 16 16 16 16 16 16 16 16 16 16 16 16 16 16
18 18 17 17 17 17 17 17 17 17 17 17 17 17 17 17 17 16 16 16 16 16 16 16 16 16 16 16 16 16 16 16 16 16 16 16 16 16 16 16 16 16 16
18 18 17 17 17 17 17 17 17 17 17 17 17 17 17 16 16 16 16 16 16 16 16 16 16 16 16 16 16 16 16 16 16 16 16 15 15 15 15 15 15 15 15
18 18 18 17 17 17 17 17 17 17 17 17 17 17 16 16 16 16 16 16 16 16 16 16 16 16 16 16 16 16 16 15 15 15 15 15 15 15 15 15 15 15 15
18 18 18 17 17 17 17 17 17 17 17 17 16 16 16 16 16 16 16 16 16 16 16 16 16 16 16 16 15 15 15 15 15 15 15 15 15 15 15 15 15 15 15
18 17 17 17 17 17 17 17 17 17 16 16 16 16 16 16 16 16 16 16 16 16 16 16 16 16 15 15 15 15 15 15 15 15 15 15 15 15 15 15 15 15 15
18 18 17 17 17 17 17 17 17 16 16 16 16 16 16 16 16 16 16 16 16 16 15 15 16 15 15 15 15 15 15 15 15 15 15 15 15 15 15 14 15 14 14
18 18 17 17 17 17 17 16 16 16 16 16 16 16 16 16 16 16 16 16 15 15 15 15 15 15 15 15 15 15 15 15 14 14 14 14 14 14 14 14 14 14 14
18 18 17 17 17 17 16 16 16 16 16 16 16 16 16 16 15 15 15 15 15 15 15 15 15 15 15 15 15 15 15 15 15 14 14 14 14 14 14 14 14 14 14
18 18 17 17 17 17 16 16 16 16 16 16 16 16 15 15 15 15 15 15 15 15 15 15 15 15 15 15 15 15 15 15 15 15 14 14 14 14 14 14 13 13 14
18 18 17 17 17 16 16 16 16 16 16 16 16 16 15 15 15 15 15 15 15 15 15 15 15 15 15 15 15 15 15 15 15 15 14 14 14 13 13 13 13 13 13
Wind_Speed
3 6 12 14 14 15 15 15 15 15 15 15 15 15 15 15 15 14 14 14 13 13 12 12 12 11 11 11 10 10 10 10 10 10 10 10 10 10 10 10 10 9 10
6 9 14 14 14 15 15 15 15 14 15 14 14 14 14 14 14 14 13 13 13 12 11 11 10 10 10 10 9 9 9 9 9 10 9 9 9 10 10 10 10 9 10
8 11 14 15 15 14 14 14 14 14 14 14 14 14 13 13 13 13 12 12 12 11 11 10 10 9 9 8 8 8 9 8 7 8 8 7 8 9 9 10 9 10 9
9 10 13 15 14 14 14 14 14 14 14 13 13 13 13 13 12 12 12 11 11 10 10 9 9 8 7 7 7 7 8 7 6 7 6 5 6 8 9 9 9 9 8
9 11 14 15 14 14 14 14 13 14 14 14 13 13 12 12 12 12 11 11 11 10 9 8 8 7 7 6 6 6 6 7 7 7 6 6 6 7 8 8 8 8 7
8 11 14 14 14 13 13 13 13 14 14 13 13 12 12 11 11 11 11 10 10 9 8 8 7 7 6 6 6 6 6 7 7 6 6 6 6 7 7 7 7 7 6
8 10 13 15 14 14 14 13 14 13 13 12 11 11 11 11 10 10 10 9 9 9 8 7 6 5 5 5 6 6 7 7 7 6 5 5 5 6 6 6 6 6 6
8 8 11 14 14 14 14 13 13 12 12 11 10 10 10 9 9 9 9 8 8 7 6 5 5 5 5 5 5 6 6 7 6 5 5 4 5 5 6 6 5 5 5
7 7 7 10 12 13 13 13 12 11 10 10 9 8 8 8 7 7 8 7 6 6 5 4 3 4 4 5 5 6 6 6 5 4 4 3 4 5 5 5 5 5 5
6 5 6 7 9 10 10 11 11 10 9 8 7 7 7 6 6 6 6 6 5 4 4 3 2 2 3 3 5 5 6 7 6 5 3 4 4 4 4 4 4 4 4
5 3 4 5 6 7 7 9 9 8 7 6 5 4 4 3 3 4 5 5 4 3 2 1 2 3 4 4 5 5 6 6 6 5 3 4 4 4 4 3 3 3 4
5 4 3 4 4 6 5 5 4 4 4 3 2 2 3 3 3 4 4 4 3 1 0 2 3 3 4 4 5 5 5 5 5 4 4 5 5 4 3 3 2 3 4
5 5 4 3 4 4 3 4 3 2 2 2 2 2 3 4 3 3 2 2 1 0 1 3 4 3 3 3 4 4 5 5 4 4 5 5 5 6 5 4 3 3 4
5 5 5 4 4 4 5 3 2 2 2 2 2 3 4 3 2 2 2 1 1 1 1 2 2 2 3 3 4 5 5 5 5 5 5 6 6 6 6 6 4 3 4
6 5 4 5 5 4 4 2 3 2 2 3 3 4 6 4 2 2 1 1 0 0 1 2 2 3 4 4 5 6 5 5 5 5 5 6 7 7 8 8 6 6 6
6 6 4 5 5 5 3 3 2 3 3 5 4 5 6 5 4 3 2 2 1 2 3 3 3 3 3 3 4 5 5 5 5 5 4 5 7 7 7 8 8 7 7
6 6 5 5 5 5 4 4 4 4 5 4 4 6 6 7 6 4 3 2 2 4 5 5 4 4 3 4 4 4 4 4 4 4 4 4 5 6 7 8 9 9 8
7 6 5 6 5 5 4 4 4 5 6 4 5 6 7 7 7 6 4 2 4 5 5 3 3 4 4 4 4 3 3 3 3 3 4 4 4 5 6 8 9 10 9
8 7 6 6 6 5 4 4 5 6 6 5 7 7 7 8 8 7 4 4 5 5 3 3 3 3 4 4 3 3 3 3 3 4 4 4 4 5 6 7 9 10 10
7 7 7 6 5 5 4 4 4 4 4 5 6 6 7 8 8 8 5 5 6 4 4 4 4 4 3 3 4 5 4 4 3 4 3 4 4 5 6 7 8 9 10
7 7 6 6 5 4 3 3 3 2 2 3 4 6 7 7 7 7 4 4 4 4 4 4 3 5 4 2 4 4 5 5 5 4 4 4 4 5 7 7 7 7 8
8 7 6 7 5 5 3 3 3 3 2 2 2 5 6 6 6 6 4 3 3 4 4 4 4 3 2 2 3 3 3 5 5 5 4 4 4 6 6 6 7 7 7
8 8 7 6 6 5 4 3 3 4 4 3 3 2 3 5 6 6 6 5 3 3 3 3 3 4 2 2 2 3 3 2 1 4 4 4 4 4 4 6 7 7 7
9 8 8 7 6 6 6 5 5 4 3 1 1 1 3 5 6 7 6 6 4 3 3 3 3 3 3 1 2 2 2 4 3 1 3 4 4 4 4 4 6 6 7
9 9 8 7 6 6 6 7 6 4 3 2 2 3 3 3 5 6 6 5 4 3 3 3 4 4 3 2 1 1 2 3 2 3 1 2 3 4 3 4 4 5 6
7 7 7 7 6 6 7 7 7 7 5 4 3 3 2 2 2 4 5 5 4 3 3 3 4 4 3 3 3 2 2 2 1 2 2 1 1 2 3 3 4 4 5
Wind_Direction
135 138 129 122 117 113 109 106 103 101 98 96 96 95 95 95 95 96 96 94 93 92 91 91 90 89 89 87 85 83 82 80 81 85 87 89 89 90 94 91 88 87 94
145 136 127 122 117 113 111 108 105 102 101 98 97 97 96 96 97 97 97 95 93 92 92 92 90 89 89 85 80 80 80 81 83 83 84 86 88 90 92 94 92 92 94
129 129 125 122 117 114 112 110 108 106 104 101 100 99 97 96 96 96 97 96 93 92 91 91 89 89 89 83 77 76 75 78 84 82 78 81 89 92 94 94 96 95 95
129 129 125 122 118 117 113 109 108 108 107 105 103 101 99 98 96 96 95 95 95 94 93 92 90 89 88 82 75 76 77 75 80 84 75 80 90 95 95 94 95 96 96
124 128 128 124 122 119 116 113 110 111 110 107 106 104 101 100 99 98 96 96 96 96 95 93 91 88 85 79 72 73 76 75 82 82 79 83 95 100 98 97 94 96 96
123 128 131 128 127 124 121 119 116 114 111 110 108 107 105 103 100 98 98 99 98 98 97 95 90 86 79 71 67 69 73 76 86 88 89 88 95 99 98 98 98 96 94
125 128 132 131 131 129 126 123 120 119 116 114 111 110 109 107 105 102 102 103 102 99 97 95 92 85 75 63 61 64 70 82 90 93 95 89 98 99 97 98 96 94 92
127 127 132 132 132 133 132 129 128 126 123 119 115 112 112 110 109 109 109 109 106 101 97 93 92 80 67 58 56 66 80 86 87 98 102 102 104 98 98 95 93 95 94
121 125 126 132 134 137 138 137 136 134 129 124 120 119 118 118 118 117 118 116 112 105 97 92 85 69 58 55 54 59 72 80 86 92 101 105 103 99 99 95 93 94 91
109 118 125 135 135 135 141 144 144 142 137 133 130 132 129 127 128 130 128 127 121 113 103 90 66 46 38 38 43 59 72 74 84 80 83 111 107 98 95 98 101 100 96
119 124 133 139 145 144 146 151 150 145 144 144 148 157 147 139 145 151 151 146 137 122 104 67 19 11 16 19 32 64 73 82 88 78 78 103 103 97 92 97 102 109 113
145 157 154 153 163 160 154 146 149 146 146 149 164 170 158 170 179 175 177 170 163 161 11 355 355 353 1 11 29 66 80 84 87 83 77 85 86 83 82 93 104 123 126
153 152 152 156 163 156 142 150 145 139 138 137 155 164 157 154 156 163 179 189 198 226 359 351 358 356 6 32 53 79 85 79 79 79 76 77 73 65 66 72 82 120 133
144 145 151 158 157 154 142 141 142 140 123 128 119 121 134 135 145 175 199 206 240 273 357 355 8 11 50 69 87 96 95 91 84 79 79 77 67 60 60 63 74 103 113
140 148 156 149 142 135 127 139 126 123 118 113 105 116 133 131 135 142 161 153 183 154 122 100 69 63 69 76 95 107 105 106 95 88 81 78 70 60 56 58 66 84 93
145 148 147 134 125 120 122 120 109 112 104 89 86 97 112 119 118 117 107 98 87 109 115 100 79 70 62 75 85 99 105 105 104 103 89 74 66 63 56 59 63 69 77
147 145 140 134 114 114 115 110 104 101 94 83 84 94 101 104 107 100 91 77 83 101 99 87 72 67 66 70 65 76 90 96 110 107 92 77 64 61 58 63 67 64 67
145 137 136 132 118 110 109 103 96 88 87 82 80 83 87 93 98 93 86 75 84 88 86 79 69 64 57 64 59 53 69 78 101 109 96 84 75 65 61 66 67 62 61
151 140 133 125 119 112 105 93 85 84 82 83 78 76 82 91 96 93 85 79 84 80 72 87 74 84 77 73 78 61 52 53 70 91 86 84 85 77 75 72 63 58 55
149 143 136 125 121 114 100 86 71 65 64 71 73 76 85 89 94 92 87 77 79 76 65 74 77 66 74 82 79 59 39 40 53 69 72 74 78 80 78 73 62 52 50
147 146 144 140 135 120 109 107 99 86 71 61 60 76 85 91 96 92 86 71 72 82 84 89 88 71 51 60 74 50 29 34 44 41 51 63 63 75 78 75 71 59 46
162 160 155 150 144 136 139 138 133 126 101 87 61 67 76 89 97 103 99 86 79 87 75 74 88 86 48 50 98 85 41 16 17 26 32 54 57 70 72 74 74 61 52
167 166 162 161 157 151 136 109 90 69 57 50 46 46 46 86 96 105 104 98 88 93 95 90 103 111 99 29 67 129 132 175 346 2 19 32 42 52 61 71 69 63 55
174 164 156 156 152 148 136 129 132 128 130 151 128 79 57 78 94 103 102 102 96 94 97 100 106 116 119 98 25 47 132 152 143 54 357 6 23 43 45 60 62 60 61
167 163 159 155 150 150 147 147 137 133 146 133 100 90 67 55 78 97 102 101 97 92 99 96 90 93 104 121 115 81 67 66 88 128 118 347 7 12 30 50 59 57 58
157 158 155 153 156 157 152 150 145 146 144 133 127 122 90 57 53 74 94 96 98 100 100 99 98 95 93 96 94 93 116 112 127 124 131 105 34 360 20 31 43 47 55
Height
1537 1537 1538 1538 1539 1539 1540 1540 1541 1541 1542 1542 1543 1543 1544 1544 1544 1545 1545 1546 1547 1547 1547 1548 1548 1549 1549 1549 1549 1550 1550 1550 1550 1550 1550 1550 1550 1550 1550 1550 1550 1550 1550
1536 1537 1538 1539 1539 1539 1540 1540 1541 1542 1542 1543 1543 1544 1544 1545 1545 1546 1546 1547 1547 1548 1548 1549 1549 1550 1550 1550 1550 1550 1550 1550 1550 1551 1551 1551 1551 1551 1551 1551 1551 1551 1551
1536 1538 1538 1539 1540 1540 1541 1541 1541 1542 1543 1544 1544 1545 1545 1546 1546 1547 1547 1548 1548 1549 1549 1550 1550 1550 1551 1551 1551 1551 1551 1552 1552 1552 1552 1552 1552 1552 1552 1552 1552 1552 1552
1536 1538 1539 1539 1540 1541 1541 1541 1542 1543 1543 1544 1545 1546 1546 1546 1547 1547 1548 1548 1549 1550 1550 1551 1551 1551 1552 1552 1552 1552 1552 1553 1553 1553 1553 1553 1553 1553 1553 1553 1553 1553 1553
1537 1538 1539 1540 1541 1541 1542 1542 1543 1543 1544 1545 1546 1546 1547 1547 1548 1548 1549 1549 1550 1550 1551 1552 1552 1552 1552 1553 1553 1553 1553 1554 1554 1554 1554 1554 1554 1554 1554 1554 1554 1554 1554
1538 1539 1540 1541 1541 1542 1542 1543 1544 1544 1545 1546 1547 1547 1548 1548 1549 1549 1549 1550 1551 1551 1552 1552 1553 1553 1553 1554 1554 1554 1554 1554 1555 1555 1555 1555 1555 1555 1555 1555 1554 1554 1554
1539 1540 1541 1541 1542 1543 1543 1544 1545 1545 1546 1547 1548 1548 1549 1549 1550 1550 1550 1551 1551 1552 1553 1553 1554 1554 1554 1555 1555 1555 1555 1555 1556 1556 1556 1556 1555 1556 1555 1555 1555 1555 1555
1540 1541 1542 1542 1543 1543 1544 1545 1546 1547 1547 1548 1549 1549 1550 1550 1550 1551 1551 1552 1552 1553 1553 1554 1555 1555 1555 1555 1555 1556 1556 1556 1556 1557 1557 1556 1556 1556 1556 1556 1555 1555 1555
1541 1542 1543 1543 1544 1545 1546 1546 1547 1548 1549 1549 1550 1550 1551 1551 1552 1552 1553 1553 1553 1554 1554 1555 1556 1556 1556 1556 1556 1556 1557 1557 1557 1557 1557 1557 1557 1556 1556 1556 1555 1555 1555
1542 1543 1544 1544 1545 1546 1547 1547 1548 1549 1550 1551 1552 1552 1552 1553 1553 1554 1554 1554 1555 1555 1556 1556 1557 1557 1557 1558 1558 1557 1557 1558 1558 1558 1558 1557 1557 1556 1556 1556 1555 1555 1555
1543 1544 1545 1546 1547 1548 1548 1549 1550 1551 1552 1552 1553 1553 1554 1554 1555 1555 1556 1556 1556 1557 1557 1558 1558 1558 1558 1559 1559 1559 1559 1559 1559 1558 1558 1558 1557 1556 1556 1555 1555 1555 1555
1544 1545 1546 1547 1548 1549 1550 1550 1551 1552 1553 1554 1554 1555 1555 1556 1556 1557 1557 1557 1558 1558 1558 1559 1559 1559 1559 1560 1560 1560 1560 1560 1560 1559 1559 1558 1557 1556 1556 1555 1554 1554 1554
1546 1547 1548 1549 1549 1550 1551 1552 1553 1553 1554 1555 1556 1556 1556 1557 1557 1558 1558 1559 1559 1559 1560 1560 1560 1560 1560 1561 1561 1561 1561 1560 1560 1560 1559 1559 1558 1557 1556 1555 1554 1554 1554
1547 1548 1549 1550 1551 1551 1552 1554 1554 1555 1555 1556 1556 1557 1558 1558 1558 1559 1559 1560 1560 1560 1561 1561 1561 1561 1561 1561 1562 1561 1561 1561 1561 1561 1560 1559 1558 1557 1556 1555 1554 1553 1554
1547 1549 1550 1551 1552 1553 1554 1555 1556 1556 1556 1557 1557 1558 1559 1559 1559 1560 1560 1560 1561 1561 1561 1562 1562 1562 1562 1562 1562 1563 1563 1562 1562 1562 1561 1560 1559 1558 1556 1555 1554 1553 1553
1548 1549 1551 1552 1553 1554 1555 1556 1557 1557 1558 1558 1559 1559 1560 1560 1560 1561 1561 1561 1561 1562 1562 1562 1562 1563 1563 1563 1563 1563 1564 1563 1563 1563 1562 1561 1560 1559 1557 1556 1554 1554 1554
1549 1550 1552 1553 1554 1555 1556 1557 1558 1558 1559 1559 1559 1560 1561 1561 1561 1561 1562 1562 1562 1562 1563 1563 1563 1563 1563 1564 1564 1564 1564 1564 1564 1564 1563 1562 1561 1560 1558 1557 1556 1555 1554
1549 1551 1552 1554 1555 1556 1557 1558 1559 1559 1560 1560 1560 1561 1561 1562 1562 1562 1562 1562 1563 1563 1563 1564 1564 1564 1564 1564 1565 1565 1565 1565 1565 1565 1564 1563 1562 1561 1560 1558 1557 1556 1555
1549 1551 1552 1554 1555 1556 1557 1558 1559 1560 1560 1561 1561 1561 1562 1562 1563 1563 1563 1563 1564 1564 1564 1564 1564 1565 1565 1565 1565 1566 1566 1566 1566 1565 1565 1564 1563 1562 1561 1560 1558 1557 1556
1550 1551 1552 1554 1555 1556 1557 1559 1559 1560 1561 1561 1562 1562 1562 1563 1563 1563 1564 1564 1564 1564 1565 1565 1565 1566 1566 1566 1566 1566 1567 1567 1567 1566 1566 1565 1564 1563 1562 1561 1559 1558 1557
1549 1551 1552 1554 1555 1556 1558 1559 1559 1560 1561 1562 1563 1563 1563 1563 1564 1564 1564 1565 1565 1565 1565 1566 1566 1566 1566 1567 1567 1567 1568 1568 1568 1567 1567 1566 1565 1564 1563 1562 1560 1558 1556
1548 1550 1552 1553 1555 1556 1558 1559 1560 1561 1562 1563 1563 1564 1564 1564 1564 1565 1565 1566 1566 1566 1566 1566 1567 1567 1567 1567 1568 1568 1568 1570 1569 1568 1568 1567 1566 1565 1564 1562 1561 1558 1555
1547 1549 1551 1553 1555 1556 1558 1559 1560 1561 1562 1563 1563 1564 1564 1565 1565 1565 1566 1566 1566 1567 1567 1567 1567 1567 1567 1568 1568 1569 1569 1569 1569 1570 1569 1568 1567 1566 1565 1563 1561 1558 1554
1546 1548 1551 1553 1554 1556 1557 1558 1560 1561 1561 1563 1563 1564 1565 1565 1566 1566 1566 1567 1567 1567 1567 1567 1568 1568 1568 1568 1568 1568 1569 1568 1569 1569 1570 1569 1568 1567 1566 1564 1563 1560 1556
1545 1548 1550 1552 1554 1555 1557 1558 1559 1561 1562 1563 1564 1564 1565 1565 1566 1566 1567 1567 1567 1567 1567 1568 1568 1568 1568 1568 1568 1568 1568 1568 1568 1568 1569 1569 1569 1568 1566 1565 1564 1562 1559
1544 1547 1549 1551 1553 1554 1556 1557 1559 1560 1561 1562 1563 1564 1565 1566 1566 1567 1567 1567 1568 1568 1568 1568 1568 1568 1568 1568 1568 1568 1568 1568 1568 1568 1568 1568 1568 1568 1567 1566 1564 1563 1561